Precipitable_Water
0.38 0.43 0.37 0.34 0.45 0.63 0.70 0.74 0.75 0.76 0.81 0.87 0.92 1.00 1.03 1.05 1.10 1.17 1.23 1.24 1.23 1.22 1.21 1.21 1.19 1.14 1.20
0.31 0.30 0.29 0.34 0.37 0.36 0.43 0.52 0.59 0.76 0.76 0.78 0.84 0.88 0.97 1.01 1.04 1.06 1.11 1.17 1.18 1.23 1.22 1.21 1.20 1.19 1.19
0.23 0.23 0.25 0.28 0.31 0.33 0.37 0.45 0.54 0.64 0.72 0.77 0.81 0.82 0.88 0.96 1.01 1.01 1.02 1.05 1.10 1.14 1.15 1.21 1.21 1.23 1.18
0.26 0.26 0.26 0.27 0.28 0.26 0.28 0.37 0.40 0.48 0.56 0.62 0.66 0.68 0.70 0.77 0.84 0.93 1.00 1.01 1.02 1.04 1.08 1.13 1.18 1.21 1.22
0.23 0.24 0.23 0.21 0.21 0.25 0.27 0.32 0.37 0.46 0.49 0.53 0.56 0.57 0.65 0.68 0.72 0.79 0.91 0.98 1.01 1.01 1.07 1.09 1.18 1.20 1.16
0.21 0.20 0.20 0.22 0.24 0.25 0.28 0.29 0.25 0.43 0.45 0.46 0.53 0.57 0.63 0.67 0.71 0.76 0.81 0.85 0.95 0.98 1.02 1.05 1.13 1.13 1.09
0.23 0.22 0.23 0.25 0.26 0.27 0.31 0.33 0.31 0.38 0.43 0.39 0.49 0.46 0.55 0.58 0.60 0.70 0.71 0.78 0.92 0.93 0.98 1.02 1.04 1.04 1.00
0.27 0.30 0.33 0.35 0.38 0.38 0.34 0.36 0.39 0.41 0.46 0.36 0.48 0.46 0.55 0.58 0.59 0.62 0.68 0.73 0.82 0.92 0.95 0.97 0.95 0.94 0.91
0.28 0.31 0.33 0.35 0.36 0.38 0.35 0.35 0.32 0.36 0.46 0.44 0.45 0.46 0.50 0.51 0.56 0.63 0.67 0.72 0.81 0.86 0.89 0.89 0.87 0.85 0.82
0.28 0.28 0.33 0.36 0.40 0.41 0.40 0.35 0.35 0.33 0.44 0.45 0.46 0.46 0.41 0.48 0.52 0.59 0.69 0.72 0.81 0.82 0.83 0.82 0.80 0.77 0.75
0.26 0.30 0.35 0.39 0.42 0.43 0.44 0.41 0.37 0.37 0.45 0.46 0.43 0.45 0.44 0.44 0.50 0.61 0.67 0.67 0.75 0.77 0.76 0.76 0.75 0.73 0.68
0.29 0.32 0.34 0.37 0.40 0.42 0.44 0.45 0.45 0.41 0.47 0.49 0.43 0.45 0.46 0.45 0.49 0.57 0.61 0.67 0.70 0.68 0.69 0.70 0.70 0.69 0.67
0.30 0.32 0.35 0.39 0.41 0.42 0.44 0.45 0.47 0.47 0.49 0.51 0.52 0.54 0.53 0.52 0.52 0.54 0.56 0.60 0.64 0.63 0.64 0.64 0.64 0.64 0.60
0.31 0.35 0.37 0.38 0.37 0.40 0.41 0.44 0.44 0.45 0.50 0.52 0.54 0.55 0.52 0.54 0.55 0.53 0.56 0.53 0.58 0.58 0.59 0.59 0.60 0.61 0.58
0.34 0.34 0.34 0.37 0.39 0.43 0.44 0.44 0.42 0.42 0.44 0.48 0.52 0.54 0.54 0.53 0.50 0.52 0.52 0.52 0.54 0.55 0.55 0.53 0.54 0.53 0.48
0.33 0.33 0.36 0.38 0.40 0.42 0.43 0.42 0.41 0.42 0.43 0.45 0.47 0.47 0.47 0.50 0.53 0.49 0.50 0.50 0.51 0.52 0.50 0.42 0.38 0.38 0.35
0.33 0.36 0.38 0.40 0.40 0.41 0.41 0.42 0.41 0.42 0.42 0.40 0.36 0.32 0.28 0.29 0.40 0.42 0.33 0.30 0.33 0.32 0.29 0.27 0.25 0.23 0.21
Wind_Speed
54 52 54 53 52 51 51 52 52 53 54 54 55 55 55 54 54 53 51 51 52 53 53 53 52 50 50
53 54 53 52 52 53 50 50 51 50 50 51 50 51 51 52 52 52 52 52 50 51 53 54 53 51 51
57 56 55 53 52 52 51 49 48 47 47 48 47 47 47 48 48 50 51 51 52 51 50 51 53 52 51
56 57 55 54 54 53 51 49 49 47 47 47 48 47 47 47 47 47 47 47 48 50 51 53 54 53 52
58 57 56 55 54 53 52 51 49 46 45 44 44 44 43 43 44 44 43 46 48 46 45 48 49 52 50
56 56 55 53 51 50 49 48 48 44 43 42 42 42 40 40 41 41 42 43 46 44 45 45 44 46 48
53 51 50 47 47 46 45 45 46 45 44 44 42 42 41 41 41 42 42 43 42 42 43 40 42 44 42
47 46 45 44 42 41 44 45 44 43 43 43 40 40 40 40 40 41 40 41 42 39 35 36 37 40 40
41 42 42 40 39 38 36 36 36 36 37 39 38 37 36 37 37 38 39 38 34 32 31 30 33 34 37
35 35 34 33 33 33 32 31 31 31 29 33 34 32 31 30 31 32 32 32 31 32 31 30 30 32 34
30 29 29 28 28 29 28 28 27 28 28 31 31 31 30 28 25 25 26 27 28 28 29 29 30 29 30
25 25 26 27 27 27 26 25 24 23 24 25 24 24 23 23 23 22 23 23 26 26 28 28 28 28 29
24 25 26 27 27 24 20 18 16 16 16 16 18 19 20 20 20 21 23 23 25 25 24 26 27 26 27
25 27 28 25 21 17 13 11 11 11 11 10 11 14 16 16 18 20 21 21 23 24 24 23 24 25 25
27 26 24 18 14 12 10 9 8 6 4 2 3 7 8 11 13 16 18 19 21 22 22 22 22 23 23
26 21 17 13 10 8 7 4 1 1 2 3 5 6 8 9 11 13 15 15 18 19 20 20 21 22 22
19 16 12 9 8 5 2 3 5 6 6 7 7 7 8 9 9 10 12 12 15 16 17 17 19 20 22
Wind_Direction
289 289 289 288 285 282 280 277 275 272 270 268 266 264 262 261 260 259 259 257 255 251 250 250 248 245 243
290 290 290 289 287 285 282 278 275 272 271 269 267 264 262 260 259 259 257 256 254 253 252 247 246 243 242
290 290 288 288 287 285 282 279 276 274 272 269 267 265 263 261 260 259 257 256 255 254 252 246 244 242 240
290 290 288 287 285 284 281 278 276 274 271 269 267 266 263 261 259 259 257 254 255 254 253 248 243 239 236
290 289 288 287 285 283 279 277 275 273 271 269 267 264 262 261 259 258 257 255 254 254 255 247 242 236 234
291 290 289 287 285 282 279 276 272 270 269 266 267 264 263 261 259 257 256 258 254 255 254 249 236 231 227
291 290 289 288 286 283 278 276 272 268 269 265 265 264 263 260 259 258 258 257 253 254 252 241 230 223 227
291 291 290 289 286 284 282 278 273 268 265 263 263 263 261 260 260 258 256 255 254 248 239 230 223 223 224
293 292 291 290 289 287 283 280 275 270 264 262 261 263 261 259 258 256 255 251 240 231 223 223 221 220 219
298 295 294 293 291 288 285 280 277 274 268 262 261 258 259 257 256 253 249 233 228 225 220 222 219 224 224
303 299 299 297 297 294 286 281 278 273 270 266 261 257 254 253 249 246 234 223 222 220 219 221 222 227 223
307 304 304 303 302 299 292 284 278 274 273 267 258 249 244 239 238 235 223 221 218 219 222 223 219 217 213
312 309 309 306 305 301 294 287 277 279 279 266 253 242 234 235 233 226 217 221 215 216 217 215 212 209 207
316 313 312 308 307 303 296 291 283 283 286 275 249 232 225 225 224 218 214 216 213 211 208 204 203 205 208
320 317 316 313 312 307 301 295 289 280 274 254 177 181 200 209 208 204 202 203 198 196 197 198 201 207 213
323 322 321 320 317 316 315 310 274 147 140 132 140 149 150 134 146 158 167 178 184 188 196 206 212 217 221
331 333 333 333 332 337 12 86 107 113 111 116 126 138 141 148 159 165 179 187 193 202 208 216 221 225 228